Regional Weather Roundup
Issued by NWS

Home | Current Version | Previous Version | Graphics & Text | Print | Product List | Glossary On
Versions: 1 2 3 4 5 6 7 8 9 10 11 12 13 14 15 16 17 18 19 20 21 22 23 24 25 26 27 28 29 30 31 32 33 34 35 36 37 38 39 40 41 42 43 44 45 46 47 48 49 50
000
ASUS43 KIND 280809
RWRIN

WEATHER ROUNDUP FOR INDIANA
NATIONAL WEATHER SERVICE INDIANAPOLIS IN
400 AM EDT SAT MAR 28 2015

NOTE: "FAIR" INDICATES FEW OR NO CLOUDS BELOW 12,000 FEET WITH NO
SIGNIFICANT WEATHER AND/OR OBSTRUCTIONS TO VISIBILITY.

* - STATION DOES NOT REPORT WEATHER SUCH AS PRECIPITATION OR FOG.

+ - STATION NOT QUALITY CONTROLLED BY THE NATIONAL WEATHER SERVICE.
    USE DATA WITH CAUTION...ESPECIALLY DEWPOINT AND RELATIVE
    HUMIDITY OBSERVATIONS.

INZ001>003-010>013-019-020-280900-
NORTHWEST INDIANA

CITY           SKY/WX    TMP DP  RH WIND       PRES   REMARKS
GARY /AIRPORT/ CLEAR     26   9  48 N8        30.22S WCI  18
KNOX *+          N/A     18   5  57 N5        30.20S WCI  11
LA PORTE +     CLEAR     18  10  70 NE6       30.20S WCI  10
MICHIGAN CITY+ CLEAR     19   3  49 NE5       30.22S WCI  13
MONTICELLO +   CLEAR     17  14  90 NW6       30.19S WCI   8
RENSSELAER +   CLEAR     21  19  93 CALM      30.21S
VALPARAISO     CLEAR     18  11  74 CALM      30.20S

$$

LMZ046-743>745-280900-
SOUTHERN LAKE MICHIGAN

STATION/POSITION TIME  TEMP WIND        PRES
                       AIR  DIR/SP/G
                 (UTC) (F)  (DEG/KT/KT) (MB)
BURNS HARBOR     0800   25   20/ 13/ 17 1023.4S
MICHIGAN CITY    0800   23   30/ 11/ 15   N/A

$$

INZ004-005-014>016-021>024-280900-
NORTH CENTRAL INDIANA

CITY           SKY/WX    TMP DP  RH WIND       PRES   REMARKS
GOSHEN         CLEAR     16   8  71 N7        30.17S WCI   6
LOGANSPORT +   CLEAR     19  14  79 N5        30.19F WCI  13
PERU/GRISSOM   CLEAR     18  12  77 N6        30.16S WCI  10
ROCHESTER +    CLEAR     21  16  79 N3        30.19S
SOUTH BEND     CLEAR     14   6  70 N7        30.20S WCI   4
WARSAW +       CLEAR     18  10  73 N3        30.17S

$$

INZ006>009-017-018-025>027-280900-
NORTHEAST INDIANA

CITY           SKY/WX    TMP DP  RH WIND       PRES   REMARKS
ANGOLA *+      CLEAR     16   7  67 E5        30.16S WCI   9
AUBURN +       CLEAR     19  10  68 NE7       30.17S WCI  10
FORT WAYNE     CLEAR     19  12  74 N8        30.17R WCI   9
HUNTINGTON +   CLEAR     19  10  68 N5        30.16S WCI  12

$$

INZ028-029-035-036-043>045-051>053-280900-
WEST CENTRAL INDIANA

CITY           SKY/WX    TMP DP  RH WIND       PRES   REMARKS
CRAWFORDSVL +  CLEAR     17   9  73 MISG      30.19S
GREENCASTLE +  CLEAR     19  12  73 N6        30.19S WCI  11
LAFAYETTE      CLEAR     17  14  88 CALM      30.21S
TERRE HAUTE    CLEAR     23  14  68 N7        30.21S WCI  15

$$

INZ030>032-037>040-046>048-054>057-064-065-280900-
CENTRAL INDIANA

CITY           SKY/WX    TMP DP  RH WIND       PRES   REMARKS
CP ATTERBURY + CLEAR     21  14  73 CALM      30.18S
FRANKFORT +    CLEAR     19  15  88 NW5       30.19S WCI  12
GREENWOOD *+   CLEAR     21  10  63 N3        30.17S
INDIANAPOLIS   PTCLDY    20  11  68 N8        30.16S WCI  10
-EAGLE CREEK   CLEAR     20  12  71 N8        30.17S WCI  10
KOKOMO *+        N/A     19  12  73 N7        30.17F WCI  10
MARION +       CLEAR     19  13  76 N6        30.17S WCI  11
MT COMFORT *+  CLEAR     18   9  68 N5        30.16F WCI  11
SHELBYVILLE    CLEAR     21  14  74 N5        30.16S WCI  15
ZIONSVILLE +   CLEAR     19  13  76 NW5       30.17F WCI  13

$$

INZ033-034-041-042-049-050-058-059-280900-
EAST CENTRAL INDIANA

CITY           SKY/WX    TMP DP  RH WIND       PRES   REMARKS
MUNCIE         CLEAR     19  14  81 NW5       30.15S WCI  12

$$

INZ060-061-067>069-081>083-085>088-280900-
SOUTHWEST INDIANA

CITY           SKY/WX    TMP DP  RH WIND       PRES   REMARKS
EVANSVILLE     CLEAR     28  18  66 N3        30.21S
HUNTINGBURG *+ CLEAR     25  14  63 N5        30.19F WCI  19
WASHINGTON +   CLEAR     25  12  58 N8        30.20S WCI  16

$$

INZ062-063-066-070>080-084-089>092-280900-
SOUTH CENTRAL AND SOUTHEAST INDIANA

CITY           SKY/WX    TMP DP  RH WIND       PRES   REMARKS
BEDFORD +      CLEAR     21  12  68 N3        30.17F
BLOOMINGTON    CLEAR     19  13  77 N7        30.17S WCI  10
NORTH VERNON + CLEAR     23  14  68 N8        30.16S WCI  14
SEYMOUR +      CLEAR     25  14  63 N9        30.17S WCI  15

$$




USA.gov is the U.S. government's official web portal to all federal, state and local government web resources and services.